Miscellaneous Local Product
Issued by NWS Hastings, NE

Home | Current Version | Previous Version | Text Only | Print | Product List | Glossary On
Versions: 1 2 3 4 5 6 7 8 9 10 11 12 13 14 15 16 17 18 19 20 21 22 23 24 25 26 27 28 29 30 31 32 33 34 35 36 37 38 39 40 41 42 43 44 45 46 47 48 49 50
000
AXUS43 KGID 181302
MISGRI

GID CWA HOURLY WEATHER ROUNDUP
NATIONAL WEATHER SERVICE HASTINGS NE
800 AM CDT FRI AUG 18 2017

NOTE: "FAIR" INDICATES FEW OR NO CLOUDS BELOW 12,000 FEET WITH NO
SIGNIFICANT WEATHER AND/OR OBSTRUCTIONS TO VISIBILITY.

...SOUTH CENTRAL NEBRASKA...

CITY           SKY/WX    TMP DP  RH WIND       PRES   REMARKS
GRAND ISLAND   SUNNY     63  61  93 W9        29.98R
HASTINGS       SUNNY     64  59  83 W6        29.99R
KEARNEY        SUNNY     64  59  83 NW6       30.00R
ORD            SUNNY     59  56  89 CALM      29.98R
YORK           SUNNY     63  63 100 CALM      29.96R
AURORA         SUNNY     62  61  95 NW3       29.97R
LEXINGTON      SUNNY     61  58  90 NW6       30.02R
HOLDREGE       SUNNY     64  58  81 S8        30.00S
HEBRON         MOSUNNY   67  62  83 CALM      29.95R

...NEBRASKA PANHANDLE...

CITY           SKY/WX    TMP DP  RH WIND       PRES   REMARKS
CHADRON        CLEAR     53  49  86 CALM      30.07R
ALLIANCE       CLEAR     50  48  93 MISG      30.10R
SCOTTSBLUFF    CLEAR     53  49  86 NW8       30.13R
SIDNEY         CLEAR     54  49  83 NW9       30.14R

...WESTERN AND NORTH CENTRAL NEBRASKA...

CITY           SKY/WX    TMP DP  RH WIND       PRES   REMARKS
VALENTINE      SUNNY     58  52  80 SW10      29.99R
AINSWORTH      SUNNY     60  57  89 W8        29.99R
ONEILL         SUNNY     60  60 100 W5        29.97R
BROKEN BOW     SUNNY     61  57  87 S3        30.00R
IMPERIAL       SUNNY     57  55  93 N7        30.06R
NORTH PLATTE   SUNNY     58  56  93 CALM      30.03S
MCCOOK         SUNNY     62  58  86 W3        30.02S

...EASTERN NEBRASKA...

CITY           SKY/WX    TMP DP  RH WIND       PRES   REMARKS
NORFOLK        SUNNY     62  58  86 W5        29.96R
SO SIOUX CITY  MOSUNNY   65  63  93 NW8       29.91R
TEKAMAH        SUNNY     66  61  84 CALM      29.91R
COLUMBUS       SUNNY     64  61  90 W5        29.98R
ALBION         SUNNY     61  59  91 CALM      29.98R
OMAHA EPPLEY   MOSUNNY   68  62  81 N13       29.91R
OFFUTT AFB     SUNNY     68  61  79 S5        29.89R
MILLARD        SUNNY     69  64  82 W3        29.91R
LINCOLN        PTSUNNY   69  61  75 NW6       29.92R
NEBRASKA CITY  CLOUDY    67  65  96 S7        29.91R
BEATRICE       CLOUDY    69  61  75 SE7       29.90S
FALLS CITY     CLOUDY    63  60  90 SE6       29.92F

...NORTHERN KANSAS...

CITY           SKY/WX    TMP DP  RH WIND       PRES   REMARKS
GOODLAND       CLEAR     61  56  83 W12       30.07R
HILL CITY      MOSUNNY   65  60  84 CALM      30.03R
NORTON         SUNNY     61  54  77 CALM      30.02
PHILLIPSBURG   SUNNY     64  59  82 W5        30.01S
SMITH CENTER   SUNNY     61  61 100 W3        30.01R
HAYS           MOSUNNY   64  61  90 SE3       30.03S
RUSSELL        PTSUNNY   65  61  87 W5        30.01R
CONCORDIA      CLOUDY    66  62  87 CALM      29.96S
SALINA         CLOUDY    69  63  81 SW8       30.00R
TOPEKA         PTSUNNY   66  64  93 NW8       29.99R



USA.gov is the U.S. government's official web portal to all federal, state and local government web resources and services.